Pays
Station

 

Conditions  météo  pour  Andravida Airport  -  Grèce    Grèce

  
16 °C
    
 
 

METAR pour Andravida Airport :

LGAD 230450Z 00000KT CAVOK 16/14 Q1018

 

Voici le bulletin pour Andravida Airport - Grèce.
 
Le bulletin a été fait il y a 10 minutes, à 04:50 UTC .
Le vent était calme.
 
La température était de 16 °C, avec un point de rosée à 14 °C.
La pression atmosphérique était de 1018 hPa.
L'humidité relative était de 87.9%.
 
Il y avait pas de nuages en-dessous de 1500 mètres et pas de cumulonimbus.
 
La visibilité globale était de supérieure à 10 kilomètres.
 

 
 
 

Pays :   A   B   C   D   E   F   G   H   I   J   K   L   M   N   O   P   Q   R   S   T   U   V   W   Y   Z

 

Partenaires :  Info Météo avec Met'info
Météo Marine avec MeteoMarine.net
Infos Site  |  Infos Légales  |  Crédits  |  Confidentialité
Contactez-nous  |  Ajouter aux favoris
© 2013-2018 METAR - Tous droits réservés